Date String (YYYY-MM-DD hh:mm:ss) UTC,Instrument flags,Ambient pressure (hPa),Sample flow (lpm),Bypass flow (lpm),Sample temperature (°C),Ambient temperature (°C),ASC tube jacket temperature (°C),LED temperature (°C),Box temperature (°C),Sample RH (%),Span deviation,Mass concentration (μg/m³),Mass concentration (μg/m³),Mass concentration (μg/m³)
DateTimeUTC,F1_M11,P_M11,Q1_M11,Q2_M11,T1_M11,T2_M11,T3_M11,T4_M11,T5_M11,U1_M11,ZSPAN_M11,X0_M11,X2_M11,X1_M11
2022-10-10 23:00:00,,0823.2,4.99,0.00,29.4,28.0,00.0,38.1,31.3,11.1,0000.0,0006.35,0003.64,0003.30
2022-10-10 23:01:00,,0823.2,5.01,0.00,29.4,28.2,00.0,38.1,31.4,11.0,0000.0,0005.48,0003.58,0003.28
2022-10-10 23:02:00,,0823.1,5.00,0.00,29.4,28.3,00.0,38.1,31.4,11.1,0000.0,0006.43,0003.58,0003.28
2022-10-10 23:03:00,,0823.2,5.00,0.00,29.5,28.4,00.0,38.1,31.4,11.0,0000.0,0006.40,0003.56,0003.28
2022-10-10 23:04:00,,0823.1,5.01,0.00,29.5,28.5,00.0,38.1,31.5,11.1,0000.0,0006.38,0003.55,0003.28
2022-10-10 23:05:00,,0823.2,4.99,0.00,29.6,28.6,00.0,38.2,31.6,11.4,0000.0,0006.38,0003.55,0003.27
2022-10-10 23:06:00,,0823.1,5.02,0.00,29.6,28.2,00.0,38.2,31.6,11.6,0000.0,0006.76,0003.55,0003.28
2022-10-10 23:07:00,,0823.2,4.99,0.00,29.6,26.7,00.0,38.2,31.3,11.4,0000.0,0007.35,0003.56,0003.29
2022-10-10 23:08:00,,0823.2,5.00,0.00,29.5,25.8,00.0,38.1,31.2,11.4,0000.0,0007.25,0003.54,0003.30
2022-10-10 23:09:00,,0823.2,5.01,0.00,29.4,26.0,00.0,38.1,31.1,11.1,0000.0,0007.41,0003.59,0003.33
2022-10-10 23:10:00,,0823.2,4.99,0.00,29.3,26.4,00.0,38.0,31.0,10.7,0000.0,0007.43,0003.62,0003.34
2022-10-10 23:11:00,,0823.2,4.98,0.00,29.3,26.7,00.0,38.0,31.0,10.9,0000.0,0007.70,0003.68,0003.35
2022-10-10 23:12:00,,0823.2,5.01,0.00,29.3,27.0,00.0,38.0,31.1,11.0,0000.0,0007.87,0003.73,0003.38
2022-10-10 23:13:00,,0823.2,5.00,0.00,29.3,27.3,00.0,38.0,31.1,10.9,0000.0,0007.33,0003.79,0003.39
2022-10-10 23:14:00,,0823.2,4.98,0.00,29.3,27.6,00.0,38.0,31.2,10.8,0000.0,0007.91,0003.83,0003.41
2022-10-10 23:15:00,,0823.2,5.01,0.00,29.3,27.8,00.0,38.0,31.2,10.7,0000.0,0008.16,0003.89,0003.46
2022-10-10 23:16:00,,0823.2,5.01,0.00,29.3,28.0,00.0,38.0,31.3,10.8,0000.0,0008.27,0003.95,0003.49
2022-10-10 23:17:00,,0823.2,4.99,0.00,29.3,28.1,00.0,38.0,31.3,10.9,0000.0,0008.14,0004.00,0003.51
2022-10-10 23:18:00,,0823.2,5.01,0.00,29.4,28.2,00.0,38.1,31.4,10.9,0000.0,0007.97,0004.06,0003.52
2022-10-10 23:19:00,,0823.2,4.99,0.00,29.4,28.4,00.0,38.1,31.4,10.8,0000.0,0008.18,0004.14,0003.55
2022-10-10 23:20:00,,0823.1,5.00,0.00,29.5,28.5,00.0,38.1,31.4,10.9,0000.0,0008.21,0004.17,0003.57
2022-10-10 23:21:00,,0823.1,5.01,0.00,29.5,28.6,00.0,38.1,31.5,10.8,0000.0,0008.34,0004.21,0003.58
2022-10-10 23:22:00,,0823.1,4.99,0.00,29.5,28.6,00.0,38.1,31.5,10.7,0000.0,0008.20,0004.20,0003.59
2022-10-10 23:23:00,,0823.1,5.01,0.00,29.6,27.6,00.0,38.1,31.4,10.8,0000.0,0008.07,0004.20,0003.61
2022-10-10 23:24:00,,0823.1,5.00,0.00,29.5,26.6,00.0,38.1,31.3,11.1,0000.0,0008.56,0004.20,0003.63
2022-10-10 23:25:00,,0823.1,4.99,0.00,29.5,26.7,00.0,38.1,31.3,11.1,0000.0,0008.84,0004.25,0003.64
2022-10-10 23:26:00,,0823.1,5.00,0.00,29.4,26.9,00.0,38.1,31.2,11.2,0000.0,0008.79,0004.25,0003.64
2022-10-10 23:27:00,,0823.1,5.00,0.00,29.4,27.2,00.0,38.1,31.2,11.3,0000.0,0008.85,0004.24,0003.64
2022-10-10 23:28:00,,0823.1,4.99,0.00,29.4,27.5,00.0,38.1,31.2,11.2,0000.0,0009.15,0004.26,0003.64
2022-10-10 23:29:00,,0823.1,5.00,0.00,29.4,27.8,00.0,38.1,31.3,11.0,0000.0,0009.18,0004.23,0003.64
2022-10-10 23:30:00,,0823.0,5.01,0.00,29.4,28.0,00.0,38.1,31.3,10.9,0000.0,0009.06,0004.18,0003.64
2022-10-10 23:31:00,,0823.0,5.00,0.00,29.4,28.1,00.0,38.1,31.4,11.0,0000.0,0009.00,0004.13,0003.63
2022-10-10 23:32:00,,0823.0,4.99,0.00,29.5,28.3,00.0,38.1,31.4,10.9,0000.0,0009.03,0004.13,0003.63
2022-10-10 23:33:00,,0823.0,5.01,0.00,29.5,28.4,00.0,38.2,31.5,10.7,0000.0,0008.97,0004.13,0003.63
2022-10-10 23:34:00,,0823.0,4.99,0.00,29.5,28.5,00.0,38.2,31.5,10.7,0000.0,0009.00,0004.12,0003.62
2022-10-10 23:35:00,,0823.1,5.01,0.00,29.6,28.6,00.0,38.2,31.6,10.9,0000.0,0008.80,0004.10,0003.62
2022-10-10 23:36:00,,0823.1,4.99,0.00,29.6,28.6,00.0,38.2,31.6,11.1,0000.0,0008.57,0004.08,0003.62
2022-10-10 23:37:00,,0823.0,5.01,0.00,29.6,27.4,00.0,38.2,31.4,10.9,0000.0,0009.00,0004.10,0003.62
2022-10-10 23:38:00,,0823.1,4.99,0.00,29.5,25.9,00.0,38.2,31.3,11.0,0000.0,0009.08,0004.08,0003.62
2022-10-10 23:39:00,,0823.1,5.01,0.00,29.5,25.8,00.0,38.1,31.2,11.2,0000.0,0008.85,0004.08,0003.62
2022-10-10 23:40:00,,0823.1,5.00,0.00,29.4,26.1,00.0,38.1,31.1,11.4,0000.0,0008.81,0004.12,0003.64
2022-10-10 23:41:00,,0823.1,4.99,0.00,29.3,26.5,00.0,38.1,31.0,11.6,0000.0,0009.22,0004.15,0003.64
2022-10-10 23:42:00,,0823.1,4.99,0.00,29.3,26.8,00.0,38.1,31.1,11.7,0000.0,0009.55,0004.18,0003.64
2022-10-10 23:43:00,,0823.1,5.00,0.00,29.3,27.2,00.0,38.0,31.1,11.8,0000.0,0009.72,0004.20,0003.64
2022-10-10 23:44:00,,0823.1,5.01,0.00,29.3,27.5,00.0,38.0,31.2,11.9,0000.0,0009.76,0004.18,0003.65
2022-10-10 23:45:00,,0823.1,5.00,0.00,29.3,27.7,00.0,38.0,31.2,11.8,0000.0,0009.84,0004.17,0003.63
2022-10-10 23:46:00,,0823.1,5.00,0.00,29.3,27.9,00.0,38.0,31.2,11.9,0000.0,0009.79,0004.18,0003.60
2022-10-10 23:47:00,,0823.0,4.99,0.00,29.3,28.0,00.0,38.0,31.3,11.9,0000.0,0009.96,0004.17,0003.58
2022-10-10 23:48:00,,0823.1,5.01,0.00,29.4,28.2,00.0,38.1,31.3,11.9,0000.0,0009.45,0004.12,0003.56
2022-10-10 23:49:00,,0823.1,4.99,0.00,29.4,28.3,00.0,38.1,31.4,11.7,0000.0,0009.15,0004.09,0003.54
2022-10-10 23:50:00,,0823.1,5.01,0.00,29.4,28.4,00.0,38.1,31.4,11.8,0000.0,0009.03,0004.04,0003.51
2022-10-10 23:51:00,,0823.1,4.99,0.00,29.5,28.5,00.0,38.1,31.5,11.2,0000.0,0009.08,0004.01,0003.47
2022-10-10 23:52:00,,0823.0,5.00,0.00,29.5,28.6,00.0,38.1,31.5,11.5,0000.0,0008.78,0003.98,0003.45
2022-10-10 23:53:00,,0823.1,5.01,0.00,29.5,28.6,00.0,38.1,31.5,11.7,0000.0,0008.76,0003.96,0003.43
2022-10-10 23:54:00,,0823.1,5.00,0.00,29.6,28.7,00.0,38.2,31.6,11.6,0000.0,0008.70,0003.92,0003.41
2022-10-10 23:55:00,,0823.0,5.00,0.00,29.6,28.7,00.0,38.2,31.6,11.7,0000.0,0008.73,0003.95,0003.40
2022-10-10 23:56:00,,0823.0,4.99,0.00,29.6,27.7,00.0,38.2,31.5,11.8,0000.0,0009.14,0003.98,0003.40
2022-10-10 23:57:00,,0823.0,5.01,0.00,29.6,26.7,00.0,38.2,31.3,11.6,0000.0,0009.78,0003.99,0003.41
2022-10-10 23:58:00,,0822.9,5.01,0.00,29.5,26.6,00.0,38.2,31.3,11.8,0000.0,0009.32,0003.95,0003.42
2022-10-10 23:59:00,,0822.9,4.99,0.00,29.5,26.9,00.0,38.2,31.2,11.8,0000.0,0009.87,0003.97,0003.43
